owner,sensor,date,latitude,longitude,vertical_datum,sea_water_practical_salinity,qcFlag 
COMPS,ioos:station:USF.COMPS:EGK:1,2009-12-01T00:00:00Z,27.6010,-82.7510,1.0,15.468,1111122 
COMPS,ioos:station:USF.COMPS:EGK:1,2009-12-01T00:06:00Z,27.6010,-82.7510,1.0,15.538,1111122 
COMPS,ioos:station:USF.COMPS:EGK:1,2009-12-01T00:12:00Z,27.6010,-82.7510,1.0,11.338,1111122 
COMPS,ioos:station:USF.COMPS:EGK:1,2009-12-01T00:18:00Z,27.6010,-82.7510,1.0,9.249,1111122 
COMPS,ioos:station:USF.COMPS:EGK:1,2009-12-01T00:24:00Z,27.6010,-82.7510,1.0,11.263,1111122 
COMPS,ioos:station:USF.COMPS:EGK:1,2009-12-01T00:30:00Z,27.6010,-82.7510,1.0,11.549,1111122 
COMPS,ioos:station:USF.COMPS:EGK:1,2009-12-01T00:36:00Z,27.6010,-82.7510,1.0,15.121,1111122 
COMPS,ioos:station:USF.COMPS:EGK:1,2009-12-01T00:42:00Z,27.6010,-82.7510,1.0,13.638,1111122 
COMPS,ioos:station:USF.COMPS:EGK:1,2009-12-01T00:48:00Z,27.6010,-82.7510,1.0,12.954,1111122 
COMPS,ioos:station:USF.COMPS:EGK:1,2009-12-01T00:54:00Z,27.6010,-82.7510,1.0,14.614,1111122 
COMPS,ioos:station:USF.COMPS:EGK:1,2009-12-01T01:00:00Z,27.6010,-82.7510,1.0,9.564,1111122 
COMPS,ioos:station:USF.COMPS:EGK:1,2009-12-01T01:06:00Z,27.6010,-82.7510,1.0,9.919,1111122 
COMPS,ioos:station:USF.COMPS:EGK:1,2009-12-01T01:12:00Z,27.6010,-82.7510,1.0,13.064,1111122 
COMPS,ioos:station:USF.COMPS:EGK:1,2009-12-01T01:18:00Z,27.6010,-82.7510,1.0,14.729,1111122 
COMPS,ioos:station:USF.COMPS:EGK:1,2009-12-01T01:24:00Z,27.6010,-82.7510,1.0,16.043,1111122 
COMPS,ioos:station:USF.COMPS:EGK:1,2009-12-01T01:30:00Z,27.6010,-82.7510,1.0,16.182,1111122 
COMPS,ioos:station:USF.COMPS:EGK:1,2009-12-01T01:36:00Z,27.6010,-82.7510,1.0,14.392,1111122 
COMPS,ioos:station:USF.COMPS:EGK:1,2009-12-01T01:42:00Z,27.6010,-82.7510,1.0,7.687,1111122 
COMPS,ioos:station:USF.COMPS:EGK:1,2009-12-01T01:48:00Z,27.6010,-82.7510,1.0,11.162,1111122 
COMPS,ioos:station:USF.COMPS:EGK:1,2009-12-01T01:54:00Z,27.6010,-82.7510,1.0,15.538,1111122 
COMPS,ioos:station:USF.COMPS:EGK:1,2009-12-01T02:00:00Z,27.6010,-82.7510,1.0,16.966,1111122 
COMPS,ioos:station:USF.COMPS:EGK:1,2009-12-01T02:06:00Z,27.6010,-82.7510,1.0,12.109,1111122 
COMPS,ioos:station:USF.COMPS:EGK:1,2009-12-01T02:12:00Z,27.6010,-82.7510,1.0,12.61,1111122 
COMPS,ioos:station:USF.COMPS:EGK:1,2009-12-01T02:18:00Z,27.6010,-82.7510,1.0,15.561,1111122 
COMPS,ioos:station:USF.COMPS:EGK:1,2009-12-01T02:24:00Z,27.6010,-82.7510,1.0,17.437,1111122 
COMPS,ioos:station:USF.COMPS:EGK:1,2009-12-01T02:30:00Z,27.6010,-82.7510,1.0,12.359,1111122 
COMPS,ioos:station:USF.COMPS:EGK:1,2009-12-01T02:36:00Z,27.6010,-82.7510,1.0,7.493,1111122 
COMPS,ioos:station:USF.COMPS:EGK:1,2009-12-01T02:42:00Z,27.6010,-82.7510,1.0,13.68,1111122 
COMPS,ioos:station:USF.COMPS:EGK:1,2009-12-01T02:48:00Z,27.6010,-82.7510,1.0,16.85,1111122 
COMPS,ioos:station:USF.COMPS:EGK:1,2009-12-01T02:54:00Z,27.6010,-82.7510,1.0,14.911,1111122 
COMPS,ioos:station:USF.COMPS:EGK:1,2009-12-01T03:00:00Z,27.6010,-82.7510,1.0,18.24,1111122 
COMPS,ioos:station:USF.COMPS:EGK:1,2009-12-01T03:06:00Z,27.6010,-82.7510,1.0,14.381,1111122 
COMPS,ioos:station:USF.COMPS:EGK:1,2009-12-01T03:12:00Z,27.6010,-82.7510,1.0,13.763,1111122 
COMPS,ioos:station:USF.COMPS:EGK:1,2009-12-01T03:18:00Z,27.6010,-82.7510,1.0,10.25,1111122 
COMPS,ioos:station:USF.COMPS:EGK:1,2009-12-01T03:24:00Z,27.6010,-82.7510,1.0,12.29,1111122 
COMPS,ioos:station:USF.COMPS:EGK:1,2009-12-01T03:30:00Z,27.6010,-82.7510,1.0,12.891,1111122 
COMPS,ioos:station:USF.COMPS:EGK:1,2009-12-01T03:36:00Z,27.6010,-82.7510,1.0,14.836,1111122 
COMPS,ioos:station:USF.COMPS:EGK:1,2009-12-01T03:42:00Z,27.6010,-82.7510,1.0,13.807,1111122 
COMPS,ioos:station:USF.COMPS:EGK:1,2009-12-01T03:48:00Z,27.6010,-82.7510,1.0,16.43,1111122 
COMPS,ioos:station:USF.COMPS:EGK:1,2009-12-01T03:54:00Z,27.6010,-82.7510,1.0,13.869,1111122 
COMPS,ioos:station:USF.COMPS:EGK:1,2009-12-01T04:00:00Z,27.6010,-82.7510,1.0,13.267,1111122 
COMPS,ioos:station:USF.COMPS:EGK:1,2009-12-01T04:06:00Z,27.6010,-82.7510,1.0,16.363,1111122 
COMPS,ioos:station:USF.COMPS:EGK:1,2009-12-01T04:12:00Z,27.6010,-82.7510,1.0,12.529,1111122 
COMPS,ioos:station:USF.COMPS:EGK:1,2009-12-01T04:18:00Z,27.6010,-82.7510,1.0,9.368,1111122 
COMPS,ioos:station:USF.COMPS:EGK:1,2009-12-01T04:24:00Z,27.6010,-82.7510,1.0,17.828,1111122 
COMPS,ioos:station:USF.COMPS:EGK:1,2009-12-01T04:30:00Z,27.6010,-82.7510,1.0,17.827,1111122 
COMPS,ioos:station:USF.COMPS:EGK:1,2009-12-01T04:36:00Z,27.6010,-82.7510,1.0,10.55,1111122 
COMPS,ioos:station:USF.COMPS:EGK:1,2009-12-01T04:42:00Z,27.6010,-82.7510,1.0,15.164,1111122 
COMPS,ioos:station:USF.COMPS:EGK:1,2009-12-01T04:48:00Z,27.6010,-82.7510,1.0,17.714,1111122 
COMPS,ioos:station:USF.COMPS:EGK:1,2009-12-01T04:54:00Z,27.6010,-82.7510,1.0,17.099,1111122 
COMPS,ioos:station:USF.COMPS:EGK:1,2009-12-01T05:00:00Z,27.6010,-82.7510,1.0,13.546,1111122 
COMPS,ioos:station:USF.COMPS:EGK:1,2009-12-01T05:06:00Z,27.6010,-82.7510,1.0,18.995,1111122 
COMPS,ioos:station:USF.COMPS:EGK:1,2009-12-01T05:12:00Z,27.6010,-82.7510,1.0,16.325,1111122 
COMPS,ioos:station:USF.COMPS:EGK:1,2009-12-01T05:18:00Z,27.6010,-82.7510,1.0,15.485,1111122 
COMPS,ioos:station:USF.COMPS:EGK:1,2009-12-01T05:24:00Z,27.6010,-82.7510,1.0,17.075,1111122 
COMPS,ioos:station:USF.COMPS:EGK:1,2009-12-01T05:30:00Z,27.6010,-82.7510,1.0,17.83,1111122 
COMPS,ioos:station:USF.COMPS:EGK:1,2009-12-01T05:36:00Z,27.6010,-82.7510,1.0,11.629,1111122 
COMPS,ioos:station:USF.COMPS:EGK:1,2009-12-01T05:42:00Z,27.6010,-82.7510,1.0,16.266,1111122 
COMPS,ioos:station:USF.COMPS:EGK:1,2009-12-01T05:48:00Z,27.6010,-82.7510,1.0,15.666,1111122 
COMPS,ioos:station:USF.COMPS:EGK:1,2009-12-01T05:54:00Z,27.6010,-82.7510,1.0,14.641,1111122 
COMPS,ioos:station:USF.COMPS:EGK:1,2009-12-01T06:00:00Z,27.6010,-82.7510,1.0,16.856,1111122 
COMPS,ioos:station:USF.COMPS:EGK:1,2009-12-01T06:06:00Z,27.6010,-82.7510,1.0,15.951,1111122 
COMPS,ioos:station:USF.COMPS:EGK:1,2009-12-01T06:12:00Z,27.6010,-82.7510,1.0,13.972,1111122 
COMPS,ioos:station:USF.COMPS:EGK:1,2009-12-01T06:18:00Z,27.6010,-82.7510,1.0,14.357,1111122 
COMPS,ioos:station:USF.COMPS:EGK:1,2009-12-01T06:24:00Z,27.6010,-82.7510,1.0,14.863,1111122 
COMPS,ioos:station:USF.COMPS:EGK:1,2009-12-01T06:30:00Z,27.6010,-82.7510,1.0,7.959,1111122 
COMPS,ioos:station:USF.COMPS:EGK:1,2009-12-01T06:36:00Z,27.6010,-82.7510,1.0,15.938,1111122 
COMPS,ioos:station:USF.COMPS:EGK:1,2009-12-01T06:42:00Z,27.6010,-82.7510,1.0,13.827,1111122 
COMPS,ioos:station:USF.COMPS:EGK:1,2009-12-01T06:48:00Z,27.6010,-82.7510,1.0,16.624,1111122 
COMPS,ioos:station:USF.COMPS:EGK:1,2009-12-01T06:54:00Z,27.6010,-82.7510,1.0,14.763,1111122 
COMPS,ioos:station:USF.COMPS:EGK:1,2009-12-01T07:00:00Z,27.6010,-82.7510,1.0,11.63,1111122 
COMPS,ioos:station:USF.COMPS:EGK:1,2009-12-01T07:06:00Z,27.6010,-82.7510,1.0,9.609,1111122 
COMPS,ioos:station:USF.COMPS:EGK:1,2009-12-01T07:12:00Z,27.6010,-82.7510,1.0,14.68,1111122 
COMPS,ioos:station:USF.COMPS:EGK:1,2009-12-01T07:18:00Z,27.6010,-82.7510,1.0,15.963,1111122 
COMPS,ioos:station:USF.COMPS:EGK:1,2009-12-01T07:24:00Z,27.6010,-82.7510,1.0,16.789,1111122 
COMPS,ioos:station:USF.COMPS:EGK:1,2009-12-01T07:30:00Z,27.6010,-82.7510,1.0,15.246,1111122 
COMPS,ioos:station:USF.COMPS:EGK:1,2009-12-01T07:36:00Z,27.6010,-82.7510,1.0,15.648,1111122 
COMPS,ioos:station:USF.COMPS:EGK:1,2009-12-01T07:42:00Z,27.6010,-82.7510,1.0,17.004,1111122 
COMPS,ioos:station:USF.COMPS:EGK:1,2009-12-01T07:48:00Z,27.6010,-82.7510,1.0,17.441,1111122 
COMPS,ioos:station:USF.COMPS:EGK:1,2009-12-01T07:54:00Z,27.6010,-82.7510,1.0,17.754,1111122 
COMPS,ioos:station:USF.COMPS:EGK:1,2009-12-01T08:00:00Z,27.6010,-82.7510,1.0,12.944,1111122 
COMPS,ioos:station:USF.COMPS:EGK:1,2009-12-01T08:06:00Z,27.6010,-82.7510,1.0,15.942,1111122 
COMPS,ioos:station:USF.COMPS:EGK:1,2009-12-01T08:12:00Z,27.6010,-82.7510,1.0,19.195,1111122 
COMPS,ioos:station:USF.COMPS:EGK:1,2009-12-01T08:18:00Z,27.6010,-82.7510,1.0,11.668,1111122 
COMPS,ioos:station:USF.COMPS:EGK:1,2009-12-01T08:24:00Z,27.6010,-82.7510,1.0,17.852,1111122 
COMPS,ioos:station:USF.COMPS:EGK:1,2009-12-01T08:30:00Z,27.6010,-82.7510,1.0,11.178,1111122 
COMPS,ioos:station:USF.COMPS:EGK:1,2009-12-01T08:36:00Z,27.6010,-82.7510,1.0,11.638,1111122 
COMPS,ioos:station:USF.COMPS:EGK:1,2009-12-01T08:42:00Z,27.6010,-82.7510,1.0,9.178,1111122 
COMPS,ioos:station:USF.COMPS:EGK:1,2009-12-01T08:48:00Z,27.6010,-82.7510,1.0,12.967,1111122 
COMPS,ioos:station:USF.COMPS:EGK:1,2009-12-01T08:54:00Z,27.6010,-82.7510,1.0,14.282,1111122 
COMPS,ioos:station:USF.COMPS:EGK:1,2009-12-01T09:00:00Z,27.6010,-82.7510,1.0,15.779,1111122 
COMPS,ioos:station:USF.COMPS:EGK:1,2009-12-01T09:06:00Z,27.6010,-82.7510,1.0,11.972,1111122 
COMPS,ioos:station:USF.COMPS:EGK:1,2009-12-01T09:12:00Z,27.6010,-82.7510,1.0,10.098,1111122 
COMPS,ioos:station:USF.COMPS:EGK:1,2009-12-01T09:18:00Z,27.6010,-82.7510,1.0,13.7,1111122 
COMPS,ioos:station:USF.COMPS:EGK:1,2009-12-01T09:24:00Z,27.6010,-82.7510,1.0,12.841,1111122 
COMPS,ioos:station:USF.COMPS:EGK:1,2009-12-01T09:30:00Z,27.6010,-82.7510,1.0,15.178,1111122 
COMPS,ioos:station:USF.COMPS:EGK:1,2009-12-01T09:36:00Z,27.6010,-82.7510,1.0,15.53,1111122 
COMPS,ioos:station:USF.COMPS:EGK:1,2009-12-01T09:42:00Z,27.6010,-82.7510,1.0,13.274,1111122 
COMPS,ioos:station:USF.COMPS:EGK:1,2009-12-01T09:48:00Z,27.6010,-82.7510,1.0,16.536,1111122 
COMPS,ioos:station:USF.COMPS:EGK:1,2009-12-01T09:54:00Z,27.6010,-82.7510,1.0,16.296,1111122 
COMPS,ioos:station:USF.COMPS:EGK:1,2009-12-01T10:00:00Z,27.6010,-82.7510,1.0,6.967,1111122 
COMPS,ioos:station:USF.COMPS:EGK:1,2009-12-01T10:06:00Z,27.6010,-82.7510,1.0,15.704,1111122 
COMPS,ioos:station:USF.COMPS:EGK:1,2009-12-01T10:12:00Z,27.6010,-82.7510,1.0,15.685,1111122 
COMPS,ioos:station:USF.COMPS:EGK:1,2009-12-01T10:18:00Z,27.6010,-82.7510,1.0,13.854,1111122 
COMPS,ioos:station:USF.COMPS:EGK:1,2009-12-01T10:24:00Z,27.6010,-82.7510,1.0,15.063,1111122 
COMPS,ioos:station:USF.COMPS:EGK:1,2009-12-01T10:30:00Z,27.6010,-82.7510,1.0,14.845,1111122 
COMPS,ioos:station:USF.COMPS:EGK:1,2009-12-01T10:36:00Z,27.6010,-82.7510,1.0,10.721,1111122 
COMPS,ioos:station:USF.COMPS:EGK:1,2009-12-01T10:42:00Z,27.6010,-82.7510,1.0,14.197,1111122 
COMPS,ioos:station:USF.COMPS:EGK:1,2009-12-01T10:48:00Z,27.6010,-82.7510,1.0,14.193,1111122 
COMPS,ioos:station:USF.COMPS:EGK:1,2009-12-01T10:54:00Z,27.6010,-82.7510,1.0,11.33,1111122 
COMPS,ioos:station:USF.COMPS:EGK:1,2009-12-01T11:00:00Z,27.6010,-82.7510,1.0,17.811,1111122 
COMPS,ioos:station:USF.COMPS:EGK:1,2009-12-01T11:06:00Z,27.6010,-82.7510,1.0,17.388,1111122 
COMPS,ioos:station:USF.COMPS:EGK:1,2009-12-01T11:12:00Z,27.6010,-82.7510,1.0,16.958,1111122 
COMPS,ioos:station:USF.COMPS:EGK:1,2009-12-01T11:18:00Z,27.6010,-82.7510,1.0,15.488,1111122 
COMPS,ioos:station:USF.COMPS:EGK:1,2009-12-01T11:24:00Z,27.6010,-82.7510,1.0,12.061,1111122 
COMPS,ioos:station:USF.COMPS:EGK:1,2009-12-01T11:30:00Z,27.6010,-82.7510,1.0,11.186,1111122 
COMPS,ioos:station:USF.COMPS:EGK:1,2009-12-01T11:36:00Z,27.6010,-82.7510,1.0,14.93,1111122 
COMPS,ioos:station:USF.COMPS:EGK:1,2009-12-01T11:42:00Z,27.6010,-82.7510,1.0,13.646,1111122 
COMPS,ioos:station:USF.COMPS:EGK:1,2009-12-01T11:48:00Z,27.6010,-82.7510,1.0,14.451,1111122 
COMPS,ioos:station:USF.COMPS:EGK:1,2009-12-01T11:54:00Z,27.6010,-82.7510,1.0,14.613,1111122 
COMPS,ioos:station:USF.COMPS:EGK:1,2009-12-01T12:00:00Z,27.6010,-82.7510,1.0,7.743,1111122 
COMPS,ioos:station:USF.COMPS:EGK:1,2009-12-01T12:06:00Z,27.6010,-82.7510,1.0,10.444,1111122 
COMPS,ioos:station:USF.COMPS:EGK:1,2009-12-01T12:12:00Z,27.6010,-82.7510,1.0,14.257,1111122 
COMPS,ioos:station:USF.COMPS:EGK:1,2009-12-01T12:18:00Z,27.6010,-82.7510,1.0,17.043,1111122 
COMPS,ioos:station:USF.COMPS:EGK:1,2009-12-01T12:24:00Z,27.6010,-82.7510,1.0,12.268,1111122 
COMPS,ioos:station:USF.COMPS:EGK:1,2009-12-01T12:30:00Z,27.6010,-82.7510,1.0,14.587,1111122 
COMPS,ioos:station:USF.COMPS:EGK:1,2009-12-01T12:36:00Z,27.6010,-82.7510,1.0,8.772,1111122 
COMPS,ioos:station:USF.COMPS:EGK:1,2009-12-01T12:42:00Z,27.6010,-82.7510,1.0,8.321,1111122 
COMPS,ioos:station:USF.COMPS:EGK:1,2009-12-01T12:48:00Z,27.6010,-82.7510,1.0,8.273,1111122 
COMPS,ioos:station:USF.COMPS:EGK:1,2009-12-01T12:54:00Z,27.6010,-82.7510,1.0,12.499,1111122 
COMPS,ioos:station:USF.COMPS:EGK:1,2009-12-01T13:00:00Z,27.6010,-82.7510,1.0,9.361,1111122 
COMPS,ioos:station:USF.COMPS:EGK:1,2009-12-01T13:06:00Z,27.6010,-82.7510,1.0,13.282,1111122 
COMPS,ioos:station:USF.COMPS:EGK:1,2009-12-01T13:12:00Z,27.6010,-82.7510,1.0,10.689,1111122 
COMPS,ioos:station:USF.COMPS:EGK:1,2009-12-01T13:18:00Z,27.6010,-82.7510,1.0,9.46,1111122 
COMPS,ioos:station:USF.COMPS:EGK:1,2009-12-01T13:24:00Z,27.6010,-82.7510,1.0,14.118,1111122 
COMPS,ioos:station:USF.COMPS:EGK:1,2009-12-01T13:30:00Z,27.6010,-82.7510,1.0,14.215,1111122 
COMPS,ioos:station:USF.COMPS:EGK:1,2009-12-01T13:36:00Z,27.6010,-82.7510,1.0,12.794,1111122 
COMPS,ioos:station:USF.COMPS:EGK:1,2009-12-01T13:42:00Z,27.6010,-82.7510,1.0,10.06,1111122 
COMPS,ioos:station:USF.COMPS:EGK:1,2009-12-01T13:48:00Z,27.6010,-82.7510,1.0,12.277,1111122 
COMPS,ioos:station:USF.COMPS:EGK:1,2009-12-01T13:54:00Z,27.6010,-82.7510,1.0,15.502,1111122 
COMPS,ioos:station:USF.COMPS:EGK:1,2009-12-01T14:00:00Z,27.6010,-82.7510,1.0,13.056,1111122 
COMPS,ioos:station:USF.COMPS:EGK:1,2009-12-01T14:06:00Z,27.6010,-82.7510,1.0,10.049,1111122 
COMPS,ioos:station:USF.COMPS:EGK:1,2009-12-01T14:12:00Z,27.6010,-82.7510,1.0,12.124,1111122 
COMPS,ioos:station:USF.COMPS:EGK:1,2009-12-01T14:18:00Z,27.6010,-82.7510,1.0,9.088,1111122 
COMPS,ioos:station:USF.COMPS:EGK:1,2009-12-01T14:24:00Z,27.6010,-82.7510,1.0,13.079,1111122 
COMPS,ioos:station:USF.COMPS:EGK:1,2009-12-01T14:30:00Z,27.6010,-82.7510,1.0,13.836,1111122 
COMPS,ioos:station:USF.COMPS:EGK:1,2009-12-01T14:36:00Z,27.6010,-82.7510,1.0,8.162,1111122 
COMPS,ioos:station:USF.COMPS:EGK:1,2009-12-01T14:42:00Z,27.6010,-82.7510,1.0,9.579,1111122 
COMPS,ioos:station:USF.COMPS:EGK:1,2009-12-01T14:48:00Z,27.6010,-82.7510,1.0,7.907,1111122 
COMPS,ioos:station:USF.COMPS:EGK:1,2009-12-01T14:54:00Z,27.6010,-82.7510,1.0,5.877,1111122 
COMPS,ioos:station:USF.COMPS:EGK:1,2009-12-01T15:00:00Z,27.6010,-82.7510,1.0,9.67,1111122 
COMPS,ioos:station:USF.COMPS:EGK:1,2009-12-01T15:06:00Z,27.6010,-82.7510,1.0,7.861,1111122 
COMPS,ioos:station:USF.COMPS:EGK:1,2009-12-01T15:12:00Z,27.6010,-82.7510,1.0,7.588,1111122 
COMPS,ioos:station:USF.COMPS:EGK:1,2009-12-01T15:18:00Z,27.6010,-82.7510,1.0,11.852,1111122 
COMPS,ioos:station:USF.COMPS:EGK:1,2009-12-01T15:24:00Z,27.6010,-82.7510,1.0,10.753,1111122 
COMPS,ioos:station:USF.COMPS:EGK:1,2009-12-01T15:30:00Z,27.6010,-82.7510,1.0,11.506,1111122 
COMPS,ioos:station:USF.COMPS:EGK:1,2009-12-01T15:36:00Z,27.6010,-82.7510,1.0,12.94,1111122 
COMPS,ioos:station:USF.COMPS:EGK:1,2009-12-01T15:42:00Z,27.6010,-82.7510,1.0,10.396,1111122 
COMPS,ioos:station:USF.COMPS:EGK:1,2009-12-01T15:48:00Z,27.6010,-82.7510,1.0,10.097,1111122 
COMPS,ioos:station:USF.COMPS:EGK:1,2009-12-01T15:54:00Z,27.6010,-82.7510,1.0,10.127,1111122 
COMPS,ioos:station:USF.COMPS:EGK:1,2009-12-01T16:00:00Z,27.6010,-82.7510,1.0,11.028,1111122 
COMPS,ioos:station:USF.COMPS:EGK:1,2009-12-01T16:06:00Z,27.6010,-82.7510,1.0,10.207,1111122 
COMPS,ioos:station:USF.COMPS:EGK:1,2009-12-01T16:12:00Z,27.6010,-82.7510,1.0,3.78,1111122 
COMPS,ioos:station:USF.COMPS:EGK:1,2009-12-01T16:18:00Z,27.6010,-82.7510,1.0,7.719,1111122 
COMPS,ioos:station:USF.COMPS:EGK:1,2009-12-01T16:24:00Z,27.6010,-82.7510,1.0,16.836,1111122 
COMPS,ioos:station:USF.COMPS:EGK:1,2009-12-01T16:30:00Z,27.6010,-82.7510,1.0,12.562,1111122 
COMPS,ioos:station:USF.COMPS:EGK:1,2009-12-01T16:36:00Z,27.6010,-82.7510,1.0,6.084,1111122 
COMPS,ioos:station:USF.COMPS:EGK:1,2009-12-01T16:42:00Z,27.6010,-82.7510,1.0,4.121,1111122 
COMPS,ioos:station:USF.COMPS:EGK:1,2009-12-01T16:48:00Z,27.6010,-82.7510,1.0,12.237,1111122 
COMPS,ioos:station:USF.COMPS:EGK:1,2009-12-01T16:54:00Z,27.6010,-82.7510,1.0,11.205,1111122 
COMPS,ioos:station:USF.COMPS:EGK:1,2009-12-01T17:00:00Z,27.6010,-82.7510,1.0,13.042,1111122 
COMPS,ioos:station:USF.COMPS:EGK:1,2009-12-01T17:06:00Z,27.6010,-82.7510,1.0,13.609,1111122 
COMPS,ioos:station:USF.COMPS:EGK:1,2009-12-01T17:12:00Z,27.6010,-82.7510,1.0,8.28,1111122 
COMPS,ioos:station:USF.COMPS:EGK:1,2009-12-01T17:18:00Z,27.6010,-82.7510,1.0,6.25,1111122 
COMPS,ioos:station:USF.COMPS:EGK:1,2009-12-01T17:24:00Z,27.6010,-82.7510,1.0,8.153,1111122 
COMPS,ioos:station:USF.COMPS:EGK:1,2009-12-01T17:30:00Z,27.6010,-82.7510,1.0,7.311,1111122 
COMPS,ioos:station:USF.COMPS:EGK:1,2009-12-01T17:36:00Z,27.6010,-82.7510,1.0,3.482,1111122 
COMPS,ioos:station:USF.COMPS:EGK:1,2009-12-01T17:42:00Z,27.6010,-82.7510,1.0,5.349,1111122 
COMPS,ioos:station:USF.COMPS:EGK:1,2009-12-01T17:54:00Z,27.6010,-82.7510,1.0,3.817,1111122 
COMPS,ioos:station:USF.COMPS:EGK:1,2009-12-01T18:00:00Z,27.6010,-82.7510,1.0,4.87,1111122 
COMPS,ioos:station:USF.COMPS:EGK:1,2009-12-01T18:06:00Z,27.6010,-82.7510,1.0,11.423,1111122 
COMPS,ioos:station:USF.COMPS:EGK:1,2009-12-01T18:12:00Z,27.6010,-82.7510,1.0,7.014,1111122 
COMPS,ioos:station:USF.COMPS:EGK:1,2009-12-01T18:36:00Z,27.6010,-82.7510,1.0,5.749,1111122 
COMPS,ioos:station:USF.COMPS:EGK:1,2009-12-01T18:42:00Z,27.6010,-82.7510,1.0,4.582,1111122 
COMPS,ioos:station:USF.COMPS:EGK:1,2009-12-01T19:36:00Z,27.6010,-82.7510,1.0,7.181,1111122 
COMPS,ioos:station:USF.COMPS:EGK:1,2009-12-01T19:42:00Z,27.6010,-82.7510,1.0,11.115,1111122 
COMPS,ioos:station:USF.COMPS:EGK:1,2009-12-01T19:48:00Z,27.6010,-82.7510,1.0,10.894,1111122 
COMPS,ioos:station:USF.COMPS:EGK:1,2009-12-01T19:54:00Z,27.6010,-82.7510,1.0,4.317,1111122 
COMPS,ioos:station:USF.COMPS:EGK:1,2009-12-01T20:00:00Z,27.6010,-82.7510,1.0,6.096,1111122 
COMPS,ioos:station:USF.COMPS:EGK:1,2009-12-01T20:30:00Z,27.6010,-82.7510,1.0,8.958,1111122 
COMPS,ioos:station:USF.COMPS:EGK:1,2009-12-01T20:42:00Z,27.6010,-82.7510,1.0,9.294,1111122 
COMPS,ioos:station:USF.COMPS:EGK:1,2009-12-01T20:48:00Z,27.6010,-82.7510,1.0,4.755,1111122 
COMPS,ioos:station:USF.COMPS:EGK:1,2009-12-01T21:00:00Z,27.6010,-82.7510,1.0,6.187,1111122 
COMPS,ioos:station:USF.COMPS:EGK:1,2009-12-01T21:36:00Z,27.6010,-82.7510,1.0,5.382,1111122 
COMPS,ioos:station:USF.COMPS:EGK:1,2009-12-01T21:42:00Z,27.6010,-82.7510,1.0,4.683,1111122 
COMPS,ioos:station:USF.COMPS:EGK:1,2009-12-01T22:00:00Z,27.6010,-82.7510,1.0,5.205,1111122 
COMPS,ioos:station:USF.COMPS:EGK:1,2009-12-01T22:18:00Z,27.6010,-82.7510,1.0,7.393,1111122 
COMPS,ioos:station:USF.COMPS:EGK:1,2009-12-01T22:30:00Z,27.6010,-82.7510,1.0,8.13,1111122 
COMPS,ioos:station:USF.COMPS:EGK:1,2009-12-01T23:06:00Z,27.6010,-82.7510,1.0,4.501,1111122 
COMPS,ioos:station:USF.COMPS:EGK:1,2009-12-01T23:12:00Z,27.6010,-82.7510,1.0,4.987,1111122 
COMPS,ioos:station:USF.COMPS:EGK:1,2009-12-01T23:18:00Z,27.6010,-82.7510,1.0,4.506,1111122 
COMPS,ioos:station:USF.COMPS:EGK:1,2009-12-01T23:24:00Z,27.6010,-82.7510,1.0,4.026,1111122 
COMPS,ioos:station:USF.COMPS:EGK:1,2009-12-02T00:18:00Z,27.6010,-82.7510,1.0,4.769,1111122 
COMPS,ioos:station:USF.COMPS:EGK:1,2009-12-02T00:42:00Z,27.6010,-82.7510,1.0,3.542,1111122 
COMPS,ioos:station:USF.COMPS:EGK:1,2009-12-02T00:54:00Z,27.6010,-82.7510,1.0,3.955,1111122 
COMPS,ioos:station:USF.COMPS:EGK:1,2009-12-02T01:30:00Z,27.6010,-82.7510,1.0,5.197,1111122 
COMPS,ioos:station:USF.COMPS:EGK:1,2009-12-02T01:36:00Z,27.6010,-82.7510,1.0,7.403,1111122 
COMPS,ioos:station:USF.COMPS:EGK:1,2009-12-02T01:54:00Z,27.6010,-82.7510,1.0,6.425,1111122 
COMPS,ioos:station:USF.COMPS:EGK:1,2009-12-02T02:12:00Z,27.6010,-82.7510,1.0,9.148,1111122 
COMPS,ioos:station:USF.COMPS:EGK:1,2009-12-02T02:18:00Z,27.6010,-82.7510,1.0,9.959,1111122 
COMPS,ioos:station:USF.COMPS:EGK:1,2009-12-02T02:30:00Z,27.6010,-82.7510,1.0,4.578,1111122 
COMPS,ioos:station:USF.COMPS:EGK:1,2009-12-02T02:36:00Z,27.6010,-82.7510,1.0,5.358,1111122 
COMPS,ioos:station:USF.COMPS:EGK:1,2009-12-02T02:42:00Z,27.6010,-82.7510,1.0,4.938,1111122 
COMPS,ioos:station:USF.COMPS:EGK:1,2009-12-02T02:48:00Z,27.6010,-82.7510,1.0,8.047,1111122 
COMPS,ioos:station:USF.COMPS:EGK:1,2009-12-02T03:00:00Z,27.6010,-82.7510,1.0,7.849,1111122 
COMPS,ioos:station:USF.COMPS:EGK:1,2009-12-02T03:06:00Z,27.6010,-82.7510,1.0,6.441,1111122 
COMPS,ioos:station:USF.COMPS:EGK:1,2009-12-02T03:12:00Z,27.6010,-82.7510,1.0,7.066,1111122 
COMPS,ioos:station:USF.COMPS:EGK:1,2009-12-02T03:36:00Z,27.6010,-82.7510,1.0,8.62,1111122 
COMPS,ioos:station:USF.COMPS:EGK:1,2009-12-02T04:00:00Z,27.6010,-82.7510,1.0,10.883,1111122 
COMPS,ioos:station:USF.COMPS:EGK:1,2009-12-02T04:06:00Z,27.6010,-82.7510,1.0,12.567,1111122 
COMPS,ioos:station:USF.COMPS:EGK:1,2009-12-02T04:12:00Z,27.6010,-82.7510,1.0,4.114,1111122 
COMPS,ioos:station:USF.COMPS:EGK:1,2009-12-02T04:18:00Z,27.6010,-82.7510,1.0,8.166,1111122 
COMPS,ioos:station:USF.COMPS:EGK:1,2009-12-02T04:24:00Z,27.6010,-82.7510,1.0,4.531,1111122 
COMPS,ioos:station:USF.COMPS:EGK:1,2009-12-02T04:30:00Z,27.6010,-82.7510,1.0,10.228,1111122 
COMPS,ioos:station:USF.COMPS:EGK:1,2009-12-02T04:36:00Z,27.6010,-82.7510,1.0,7.881,1111122 
COMPS,ioos:station:USF.COMPS:EGK:1,2009-12-02T04:42:00Z,27.6010,-82.7510,1.0,8.614,1111122 
COMPS,ioos:station:USF.COMPS:EGK:1,2009-12-02T05:06:00Z,27.6010,-82.7510,1.0,5.334,1111122 
COMPS,ioos:station:USF.COMPS:EGK:1,2009-12-02T05:18:00Z,27.6010,-82.7510,1.0,5.718,1111122 
COMPS,ioos:station:USF.COMPS:EGK:1,2009-12-02T05:24:00Z,27.6010,-82.7510,1.0,3.472,1111122 
COMPS,ioos:station:USF.COMPS:EGK:1,2009-12-02T05:30:00Z,27.6010,-82.7510,1.0,4.016,1111122 
COMPS,ioos:station:USF.COMPS:EGK:1,2009-12-02T05:36:00Z,27.6010,-82.7510,1.0,5.853,1111122 
COMPS,ioos:station:USF.COMPS:EGK:1,2009-12-02T05:42:00Z,27.6010,-82.7510,1.0,5.29,1111122 
COMPS,ioos:station:USF.COMPS:EGK:1,2009-12-02T05:48:00Z,27.6010,-82.7510,1.0,3.857,1111122 
COMPS,ioos:station:USF.COMPS:EGK:1,2009-12-02T06:00:00Z,27.6010,-82.7510,1.0,4.91,1111122 
COMPS,ioos:station:USF.COMPS:EGK:1,2009-12-02T06:24:00Z,27.6010,-82.7510,1.0,3.604,1111122 
COMPS,ioos:station:USF.COMPS:EGK:1,2009-12-02T07:12:00Z,27.6010,-82.7510,1.0,7.772,1111122 
COMPS,ioos:station:USF.COMPS:EGK:1,2009-12-02T07:18:00Z,27.6010,-82.7510,1.0,8.032,1111122 
COMPS,ioos:station:USF.COMPS:EGK:1,2009-12-02T07:30:00Z,27.6010,-82.7510,1.0,5.071,1111122 
COMPS,ioos:station:USF.COMPS:EGK:1,2009-12-02T07:36:00Z,27.6010,-82.7510,1.0,7.317,1111122 
COMPS,ioos:station:USF.COMPS:EGK:1,2009-12-02T07:54:00Z,27.6010,-82.7510,1.0,5.865,1111122 
COMPS,ioos:station:USF.COMPS:EGK:1,2009-12-02T08:00:00Z,27.6010,-82.7510,1.0,8.416,1111122 
COMPS,ioos:station:USF.COMPS:EGK:1,2009-12-02T08:06:00Z,27.6010,-82.7510,1.0,5.25,1111122 
COMPS,ioos:station:USF.COMPS:EGK:1,2009-12-02T08:12:00Z,27.6010,-82.7510,1.0,6.761,1111122 
COMPS,ioos:station:USF.COMPS:EGK:1,2009-12-02T08:18:00Z,27.6010,-82.7510,1.0,13.632,1111122 
COMPS,ioos:station:USF.COMPS:EGK:1,2009-12-02T08:24:00Z,27.6010,-82.7510,1.0,8.587,1111122 
COMPS,ioos:station:USF.COMPS:EGK:1,2009-12-02T08:30:00Z,27.6010,-82.7510,1.0,8.514,1111122 
COMPS,ioos:station:USF.COMPS:EGK:1,2009-12-02T08:36:00Z,27.6010,-82.7510,1.0,9.658,1111122 
COMPS,ioos:station:USF.COMPS:EGK:1,2009-12-02T08:42:00Z,27.6010,-82.7510,1.0,7.636,1111122 
COMPS,ioos:station:USF.COMPS:EGK:1,2009-12-02T08:48:00Z,27.6010,-82.7510,1.0,9.133,1111122 
COMPS,ioos:station:USF.COMPS:EGK:1,2009-12-02T08:54:00Z,27.6010,-82.7510,1.0,5.254,1111122 
COMPS,ioos:station:USF.COMPS:EGK:1,2009-12-02T09:00:00Z,27.6010,-82.7510,1.0,7.06,1111122 
COMPS,ioos:station:USF.COMPS:EGK:1,2009-12-02T09:06:00Z,27.6010,-82.7510,1.0,4.386,1111122 
COMPS,ioos:station:USF.COMPS:EGK:1,2009-12-02T09:12:00Z,27.6010,-82.7510,1.0,4.136,1111122 
COMPS,ioos:station:USF.COMPS:EGK:1,2009-12-02T09:18:00Z,27.6010,-82.7510,1.0,5.09,1111122 
COMPS,ioos:station:USF.COMPS:EGK:1,2009-12-02T09:24:00Z,27.6010,-82.7510,1.0,9.515,1111122 
COMPS,ioos:station:USF.COMPS:EGK:1,2009-12-02T09:30:00Z,27.6010,-82.7510,1.0,11.103,1111122 
COMPS,ioos:station:USF.COMPS:EGK:1,2009-12-02T09:36:00Z,27.6010,-82.7510,1.0,7.169,1111122 
COMPS,ioos:station:USF.COMPS:EGK:1,2009-12-02T09:42:00Z,27.6010,-82.7510,1.0,7.646,1111122 